Scottsbluff, NE

12:27 PM MST on November 14, 2019 (GMT -0700)
Heilig

Weather History for KBFF - September, 2019

Change the Weather History Date:

Friday, September 6, 2019

  Actual Average Record
Temperature  
Mean Temperature 72 °F -  
Max Temperature 86 °F 84 °F 102 °F (2013)
Min Temperature 59 °F 51 °F 30 °F (1898)
Cooling Degree Days 8    
Growing Degree Days 22 (Base 50)    
Moisture  
Dew Point 55 °F    
Average Humidity 63    
Maximum Humidity 100    
Minimum Humidity 21    
Precipitation  
Precipitation 0.43 in - - ()
Sea Level Pressure  
Sea Level Pressure 30.10 in    
Wind  
Wind Speed 11 mph (ESE)    
Max Wind Speed 21 mph    
Max Gust Speed 30 mph    
Visibility 9 miles    
Events Rain , Thunderstorm    
Averages and records for this station are not official NWS values.
T = Trace of Precipitation, MM = Missing Value Source: NWS Daily Summary

Daily Weather History Graph

Daily Weather History Graph

Search for Another Location

Airport or City:

Astronomy

Sep. 06, 2019 Rise Set
Actual Time 6:25 AM MDT 7:19 PM MDT
Civil Twilight 5:56 AM MDT 7:47 PM MDT
Nautical Twilight 5:22 AM MDT 8:21 PM MDT
Astronomical Twilight 4:47 AM MDT 8:56 PM MDT
Moon 2:43 PM MDT (9/6) No Moon Set
Length of Visible Light 13h 51m
Length of Day
12h 54m
First Quarter, 56% of the Moon is Illuminated
Sep 6
First Quarter
Sep 13
Full
Sep 21
Last Quarter
Sep 28
New
Oct 5
First Quarter

Hourly Weather History & Observations

Time (MDT) Temp. Dew Point Humidity Pressure Visibility Wind Dir Wind Speed Gust Speed Precip Events Conditions
12:53 AM 66.0 °F 55.9 °F 70% 30.12 in 10.0 mi East 6.9 mph - N/A   Clear
1:53 AM 64.9 °F 55.0 °F 70% 30.09 in 10.0 mi East 8.1 mph - N/A   Clear
2:53 AM 64.0 °F 55.0 °F 73% 30.10 in 10.0 mi ESE 8.1 mph - N/A   Clear
3:53 AM 64.0 °F 55.0 °F 73% 30.12 in 10.0 mi ENE 6.9 mph - N/A   Clear
4:53 AM 63.0 °F 54.0 °F 72% 30.13 in 10.0 mi NE 9.2 mph - N/A   Clear
5:53 AM 62.1 °F 55.0 °F 78% 30.13 in 10.0 mi East 8.1 mph - N/A   Clear
6:53 AM 59.0 °F 55.0 °F 87% 30.15 in 10.0 mi South 4.6 mph - N/A   Clear
7:53 AM 66.9 °F 55.9 °F 68% 30.15 in 10.0 mi SSE 9.2 mph - N/A   Clear
8:53 AM 70.0 °F 57.9 °F 65% 30.16 in 10.0 mi SSE 5.8 mph - N/A   Clear
9:53 AM 77.0 °F 52.0 °F 42% 30.15 in 10.0 mi SE 11.5 mph - N/A   Clear
10:53 AM 80.1 °F 48.0 °F 32% 30.15 in 10.0 mi SSE 19.6 mph 26.5 mph N/A   Clear
11:53 AM 81.0 °F 48.0 °F 31% 30.13 in 10.0 mi SE 18.4 mph - N/A   Clear
12:53 PM 82.9 °F 48.0 °F 29% 30.10 in 10.0 mi SE 20.7 mph 27.6 mph N/A   Clear
1:53 PM 84.0 °F 48.9 °F 29% 30.06 in 10.0 mi SE 18.4 mph 26.5 mph N/A   Clear
2:53 PM 84.0 °F 48.0 °F 28% 30.05 in 10.0 mi SE 19.6 mph 27.6 mph N/A   Clear
3:53 PM 84.0 °F 48.0 °F 28% 30.02 in 10.0 mi SE 20.7 mph 29.9 mph N/A   Clear
4:53 PM 81.0 °F 51.1 °F 35% 30.00 in 10.0 mi SE 12.7 mph - N/A   Clear
5:53 PM 78.1 °F 50.0 °F 37% 30.03 in 10.0 mi SSE 11.5 mph - N/A   Clear
6:53 PM 75.9 °F 51.1 °F 42% 30.00 in 10.0 mi ESE 15.0 mph - N/A   Scattered Clouds
7:53 PM 73.0 °F 53.1 °F 49% 29.99 in 10.0 mi East 11.5 mph - N/A   Scattered Clouds
8:44 PM 69.8 °F 57.2 °F 64% 30.18 in 10.0 mi North 10.4 mph - N/A Thunderstorm Thunderstorm
8:53 PM 70.0 °F 55.9 °F 61% 30.07 in 10.0 mi NW 13.8 mph 20.7 mph 0.00 in Thunderstorm Thunderstorm
9:10 PM 64.0 °F 60.1 °F 87% 30.23 in 2.5 mi SSW 6.9 mph - 0.11 in Rain , Thunderstorm Heavy Thunderstorms and Rain
9:20 PM 64.0 °F 61.0 °F 90% 30.20 in 3.0 mi East 11.5 mph - 0.17 in Rain , Thunderstorm Heavy Thunderstorms and Rain
9:41 PM 62.1 °F 62.1 °F 100% 30.20 in 2.0 mi SSW 11.5 mph 25.3 mph 0.36 in Rain , Thunderstorm Heavy Thunderstorms and Rain
9:53 PM 63.0 °F 62.1 °F 97% 30.06 in 7.0 mi SE 12.7 mph - 0.42 in Rain , Thunderstorm Light Thunderstorms and Rain
10:05 PM 63.0 °F 62.1 °F 97% 30.15 in 10.0 mi East 16.1 mph - 0.00 in Rain , Thunderstorm Light Rain
10:17 PM 63.0 °F 62.1 °F 97% 30.13 in 10.0 mi ESE 17.3 mph - 0.00 in Rain Light Rain
10:53 PM 62.1 °F 61.0 °F 96% 29.97 in 10.0 mi East 18.4 mph - 0.03 in Rain Light Rain
11:53 PM 62.1 °F 60.1 °F 93% 29.98 in 10.0 mi SSE 10.4 mph - 0.00 in   Clear